sat.trackr.live / text

‹ back to catalog

STARLINK-34804

NORAD 65026 · 2025-161M

PAYLOAD ACTIVE UNKNOWN

§ Identity

Operator
Country
US
Launch date
2025-07-30
Launch site
AFWTR
Launch vehicle
Mass (kg)
RCS (m²)

Purposes: comms

External: N2YO · Heavens-Above · Gunter

§ Orbital elements

Epoch: 2026-05-25T03:19:37.110144Z

Period
94.10 min
Inclination
53.1597°
Eccentricity
0.0001686
Mean motion
15.30211393 rev/d
Perigee alt
474.0 km
Apogee alt
476.3 km
Semi-major
6,853.3 km
B*
6.3339e-4
RAAN
299.1647°
Arg perigee
85.3283°
Mean anomaly
274.7910°
Rev number
4,704

§ Raw data

STARLINK-348041 65026U 25161M   26145.13862396  .00018453  00000+0  63339-3 0  99972 65026  53.1597 299.1647 0001686  85.3283 274.7910 15.30211393 47042

JSON: /api/v1/satellites/65026 · /tle

For live sub-satellite position, see the globe view (requires WebGL).

§ Visibility from observer

Set your observer location to see the next 7 days of passes ≥ 10°. The values pass through the URL so the page stays shareable.

No JS? Fill the form by hand. The geolocation button needs JavaScript.